Regional Weather Roundup
Issued by NWS

Home | Current Version | Previous Version | Graphics & Text | Print | Product List | Glossary On
Versions: 1 2 3 4 5 6 7 8 9 10 11 12 13 14 15 16 17 18 19 20 21 22 23 24 25 26 27 28 29 30 31 32 33 34 35 36 37 38 39 40 41 42 43 44 45 46 47 48 49 50
000
ASUS44 KMEG 280000
RWRTN
TENNESSEE HOURLY STATE WEATHER ROUNDUP
NATIONAL WEATHER SERVICE MEMPHIS TN
700 PM CDT FRI MAY 27 2016

TNZ002-004-019-021-049-052-054-088>092-280100-
WEST TENNESSEE

CITY           SKY/WX    TMP DP  RH WIND       PRES   REMARKS
MEMPHIS INTL   TSTM      71  67  87 S7        29.91R
NWS MEMPHIS      N/A     71 N/A N/A MISG        N/A
JACKSON        CLOUDY    77  67  71 CALM      29.91R
DYERSBURG      CLOUDY    77  66  69 S5        29.89R
UNION CITY     SUNNY     75  70  83 SE9       29.88S
PARIS          SUNNY     75  66  73 SE6       29.92R
LEXINGTON      SUNNY     81  64  57 S6        29.93R
$$

TNZ008-025-027-028-033-062-065-066-280100-
NORTH MIDDLE TENNESSEE

CITY           SKY/WX    TMP DP  RH WIND       PRES   REMARKS
NASHVILLE      CLOUDY    82  63  52 SW3       29.95R
CLARKSVILLE    CLOUDY    78  66  66 S3        29.93S
COOKEVILLE     MOCLDY    81  66  61 S3        29.98R
CROSSVILLE     CLOUDY    74  66  76 VRB5      30.05R
$$

TNZ061-075-076-078-094-096-097-280100-
SOUTH MIDDLE TENNESSEE

CITY           SKY/WX    TMP DP  RH WIND       PRES   REMARKS
TULLAHOMA      PTCLDY    81  61  50 S5        29.98S
WINCHESTER     PTCLDY    82  64  54 S12       29.98R
COLUMBIA       CLEAR     79  72  78 S5        29.94S
SHELBYVILLE    PTCLDY    84  66  54 SW6       29.97R
$$

TNZ017-018-042-046-047-280100-
NORTHEAST TENNESSEE

CITY           SKY/WX    TMP DP  RH WIND       PRES   REMARKS
TRI CITIES     CLOUDY    69  68  96 CALM      30.08R
$$

TNZ012-013-036-069-073-074-280100-
CENTRAL EAST TENNESSEE

CITY           SKY/WX    TMP DP  RH WIND       PRES   REMARKS
KNOXVILLE      CLOUDY    74  69  85 E6        30.02S
OAK RIDGE      CLOUDY    76  68  76 CALM      30.04R
GATLINBURG     PTCLDY    75  64  69 CALM      30.03S
$$

TNZ083-085-099-280100-
SOUTHEAST TENNESSEE

CITY           SKY/WX    TMP DP  RH WIND       PRES   REMARKS
CHATTANOOGA    MOCLDY    84  62  47 SE9G17    29.99R
$$

SKY/WX REPORTED AS FAIR MEANS FEW OR NO CLOUDS BELOW
12 THOUSAND FEET.





USA.gov is the U.S. government's official web portal to all federal, state and local government web resources and services.